Lapse_Rate
6.8 7.1 7.4 7.6 7.4 6.9 6.9 6.6 6.7 6.5 6.5 6.6 6.6 6.9 6.5 6.3 6.2 6.1 6.1 6.3 6.5 6.9 6.8 6.6 6.5 6.3 6.0 6.1 5.9 5.8 5.7 5.8 5.9 6.0 5.5 5.4 5.7 5.7 5.8 5.6 5.7 5.8 5.8
7.3 7.3 7.2 7.4 7.5 7.2 6.9 6.5 6.7 6.7 6.5 6.6 6.6 6.7 6.6 6.6 6.3 6.0 5.8 6.0 6.3 6.7 6.9 6.7 6.6 6.4 6.3 6.0 5.9 5.9 5.8 5.8 5.9 6.0 5.8 5.5 5.6 5.9 5.9 5.8 5.9 6.1 6.3
7.3 7.2 7.1 7.2 7.5 7.5 7.2 6.9 6.9 6.8 6.8 6.7 6.5 6.8 6.7 6.7 6.7 6.7 6.5 6.4 6.4 6.6 6.7 6.7 6.7 6.5 6.3 6.1 6.0 6.0 5.9 6.0 5.9 5.8 6.0 6.0 6.1 6.1 6.0 6.1 6.3 6.2 6.3
7.2 7.2 7.0 7.1 7.3 7.4 7.2 6.8 6.7 6.9 6.9 6.8 6.6 6.8 6.8 7.2 7.1 7.0 7.0 6.7 6.8 6.9 6.8 6.8 6.6 6.5 6.3 6.3 6.2 6.2 5.9 6.1 5.8 5.8 6.0 6.2 6.2 6.3 6.2 6.2 6.5 6.6 6.5
7.2 7.0 7.0 7.0 7.0 7.1 7.0 6.8 6.6 6.6 6.7 6.6 6.4 6.4 6.7 6.7 6.7 7.2 7.2 7.3 7.2 7.1 7.0 6.7 6.6 6.6 6.3 6.4 6.4 6.4 6.1 6.0 5.9 5.9 6.0 6.3 6.4 6.5 6.5 6.5 6.6 6.6 6.6
6.7 6.9 7.0 6.8 6.9 7.0 6.9 6.8 6.6 6.8 6.9 6.9 6.8 6.9 6.6 6.8 6.9 6.8 7.0 7.2 7.4 7.1 6.8 6.7 6.7 6.5 6.4 6.5 6.7 6.5 6.2 6.1 5.9 5.9 6.2 6.3 6.4 6.4 6.6 6.6 6.6 6.6 6.6
6.6 7.0 7.1 6.9 6.9 6.9 6.8 6.8 6.6 6.6 6.7 6.8 6.8 6.7 6.5 6.5 6.9 7.0 6.9 7.1 7.4 7.1 6.8 6.6 6.6 6.6 6.5 6.6 7.1 6.5 6.1 6.0 6.1 6.0 6.2 6.2 6.4 6.7 6.7 6.6 6.6 6.7 6.6
7.0 7.0 7.2 7.1 7.1 6.7 6.5 6.6 6.5 6.5 6.2 6.1 6.2 6.4 6.2 6.7 6.9 6.8 6.9 6.9 7.3 6.9 6.5 6.5 6.6 6.8 6.4 6.6 6.9 6.2 5.8 6.0 6.0 6.2 6.2 6.4 6.5 6.6 6.6 6.6 6.7 6.6 6.5
7.2 7.1 7.0 7.0 6.8 6.6 6.3 6.5 6.5 6.5 5.7 5.7 5.6 5.4 5.5 5.8 5.6 6.3 7.0 6.9 6.8 6.7 6.7 6.6 6.3 6.4 6.3 6.4 7.1 6.3 6.0 6.1 6.2 6.3 6.5 6.5 6.5 6.6 6.6 6.7 6.7 6.5 6.7
7.2 7.3 7.0 6.9 6.6 6.3 6.3 6.3 6.4 6.2 6.0 4.9 4.8 5.3 5.1 5.6 5.1 5.5 6.5 6.6 6.7 6.7 6.5 6.3 6.3 5.9 6.4 6.7 6.6 6.4 6.1 6.2 6.2 6.4 6.5 6.4 6.4 6.4 6.4 6.4 6.4 6.4 6.5
7.5 7.3 7.0 6.6 6.3 6.3 6.2 6.3 6.2 6.2 6.2 5.7 5.5 5.3 5.2 5.0 5.0 5.3 6.3 6.7 6.5 6.5 6.3 6.1 6.0 6.1 6.4 6.7 6.6 6.1 6.3 6.2 6.3 6.4 6.4 6.1 6.1 6.2 6.2 6.2 6.2 6.2 6.4
7.6 7.4 7.0 6.4 6.1 5.9 5.8 6.0 6.1 6.2 6.0 5.9 6.0 5.8 5.6 5.1 5.3 5.1 6.0 6.2 6.4 6.2 6.0 6.1 6.1 6.0 6.5 6.3 6.8 6.0 6.1 6.1 6.3 6.4 6.3 6.2 6.1 6.1 6.0 6.2 6.2 6.3 6.3
7.4 7.2 7.1 6.5 5.8 5.4 5.5 5.8 6.0 6.1 6.1 5.9 5.6 5.3 5.5 5.4 5.4 5.3 5.8 6.3 6.2 6.1 5.9 5.8 5.6 5.7 6.2 6.2 6.6 6.2 6.3 6.3 6.3 6.3 6.3 6.2 6.2 6.2 6.1 6.1 6.2 6.2 6.3
7.2 7.3 7.3 6.6 6.2 5.9 5.7 6.0 6.2 6.4 6.2 6.2 5.8 5.7 5.4 4.8 5.1 5.3 5.8 6.3 6.3 6.3 6.1 6.0 5.8 5.9 6.1 6.4 6.4 6.3 6.1 6.1 6.3 6.3 6.5 6.3 6.2 6.2 6.2 6.1 6.1 6.1 6.3
7.2 7.3 7.2 6.9 6.6 6.3 6.0 6.0 6.0 6.0 5.8 5.7 5.7 5.2 5.5 5.3 4.8 5.5 5.9 5.9 6.1 6.0 6.0 6.0 5.9 5.7 6.1 6.5 6.3 6.3 6.0 6.1 6.2 6.2 6.2 6.2 6.0 6.1 6.1 6.0 6.1 6.1 6.3
7.2 7.2 7.2 7.3 7.0 6.7 6.2 6.0 5.8 5.7 5.6 5.4 5.0 5.0 5.3 5.1 5.7 5.6 5.8 5.6 6.1 6.2 6.0 5.6 5.8 5.7 6.0 6.3 5.6 6.2 6.1 5.9 6.1 6.1 6.0 5.9 5.7 6.0 6.0 6.0 6.0 6.1 6.4
7.1 7.1 7.3 7.4 7.1 6.9 6.3 6.0 5.8 5.4 5.5 5.1 5.4 5.0 4.8 5.2 5.4 5.7 5.8 5.9 6.1 6.0 6.1 5.8 5.6 5.4 5.7 5.7 5.8 5.9 6.0 5.9 6.0 6.0 6.0 5.8 5.8 5.9 6.0 5.9 5.9 6.1 6.3
7.2 7.2 7.3 7.3 7.0 6.9 6.3 5.9 5.7 5.3 5.4 5.2 5.7 5.5 5.6 5.0 5.2 5.6 5.6 5.7 6.1 6.0 6.0 5.9 5.7 5.9 5.4 5.4 6.0 5.8 6.1 5.7 5.8 5.9 6.1 5.9 5.9 5.8 5.9 5.9 5.9 5.9 6.3
7.3 7.3 7.3 7.2 7.0 7.0 6.6 6.1 5.8 5.6 5.4 5.3 5.4 5.2 5.4 5.0 5.2 5.8 5.7 5.6 6.0 5.9 5.9 5.9 5.6 5.5 5.4 5.3 5.8 5.8 5.9 5.7 5.6 5.7 5.9 5.8 5.8 5.9 5.9 5.8 5.9 6.0 6.2
7.3 7.2 7.3 7.2 6.9 6.8 6.9 6.3 5.8 5.6 5.4 5.3 5.3 5.0 4.7 5.0 5.3 5.8 5.6 5.6 5.6 5.8 5.9 5.6 5.3 5.3 5.1 5.1 5.5 5.6 5.4 5.4 5.5 5.4 5.5 5.5 5.5 5.8 5.7 5.7 5.8 6.0 6.2
7.3 7.3 7.2 7.1 6.8 6.7 6.6 6.5 6.0 5.3 5.3 5.6 5.5 5.3 5.3 5.3 5.5 5.5 5.4 5.0 5.3 5.8 5.8 5.5 5.3 5.2 5.1 4.8 5.3 5.4 5.3 5.0 5.2 5.2 5.2 5.4 5.4 5.7 5.6 5.6 5.8 6.0 6.2
7.5 7.4 7.2 7.1 7.0 6.9 6.4 5.8 5.6 4.8 4.9 5.1 5.3 5.4 5.2 5.3 5.3 5.0 5.4 5.0 5.0 5.2 5.2 5.3 5.3 5.3 5.2 5.2 5.4 5.1 5.2 5.0 5.6 5.2 5.2 5.3 5.4 5.4 5.7 5.8 6.0 6.1 6.5
7.7 7.4 7.4 7.3 7.1 7.1 6.7 5.8 5.3 4.9 4.8 5.3 5.4 5.3 5.3 5.0 5.3 5.1 5.3 5.5 5.0 4.4 4.8 5.0 5.2 5.1 5.6 5.5 5.3 5.4 5.2 5.2 5.5 5.2 5.3 5.4 5.4 5.6 5.7 5.9 6.2 6.4 6.5
7.8 7.5 7.5 7.4 7.4 7.4 7.0 6.3 5.9 5.6 5.3 5.4 5.2 5.0 5.3 5.1 5.0 5.1 5.3 5.2 5.3 4.7 4.6 5.2 5.2 5.0 4.7 5.1 5.1 5.0 4.9 5.1 5.3 4.6 4.8 5.2 5.6 5.7 5.8 5.9 6.1 6.3 6.3
7.9 7.7 7.6 7.7 7.7 7.5 7.2 6.8 6.5 6.1 6.1 5.9 5.5 4.8 5.2 5.2 5.1 5.1 5.4 5.3 5.0 5.0 4.9 5.1 4.7 4.8 4.9 4.8 5.0 5.3 5.0 5.2 5.2 4.8 4.9 5.3 5.3 5.6 5.8 6.2 6.2 6.3 6.6
8.0 7.7 7.7 7.8 7.9 7.6 7.5 7.1 6.7 6.5 6.2 6.4 6.3 6.4 5.9 5.7 5.3 5.6 5.5 5.4 5.3 5.0 4.9 4.9 5.0 5.0 5.0 4.6 4.8 4.8 5.3 5.2 5.0 4.8 5.2 5.4 5.3 5.4 5.4 5.6 5.9 6.1 6.2
Wind_Speed
6 8 12 13 13 17 20 19 17 18 20 25 24 24 25 25 26 27 27 26 25 25 26 27 26 26 27 29 28 27 27 27 28 29 29 29 30 29 29 27 27 26 29
10 12 15 14 15 17 20 20 19 20 22 24 26 26 25 25 23 23 24 25 24 26 27 28 26 27 29 30 28 27 27 25 27 29 30 29 28 29 30 28 27 27 28
12 15 17 16 16 17 18 20 20 19 22 23 25 27 26 27 26 26 25 26 26 26 27 26 27 27 30 29 29 29 27 27 26 26 26 22 24 27 27 27 27 27 27
12 16 18 21 18 17 17 18 20 21 22 23 24 25 26 27 28 27 27 26 26 27 26 26 27 29 30 30 28 28 26 27 26 23 20 22 22 25 26 26 26 25 25
10 15 17 24 21 18 17 17 20 21 22 23 22 23 26 25 24 25 26 26 25 26 26 27 29 30 28 28 28 26 25 25 23 21 18 19 20 23 25 25 25 25 24
10 15 18 22 21 21 20 19 21 22 24 25 27 25 24 25 26 24 23 26 26 27 27 28 29 27 25 26 27 26 25 24 22 20 19 20 20 23 23 24 23 24 25
6 11 15 21 24 24 23 24 24 24 24 25 26 27 23 24 26 27 25 25 27 27 27 27 23 21 22 22 24 26 24 22 23 17 18 18 21 23 23 23 24 24 24
7 6 9 14 16 21 25 27 28 28 27 26 24 24 25 25 24 25 25 25 26 27 24 23 21 22 21 19 31 28 25 23 20 20 17 16 21 21 22 23 23 24 25
8 7 7 8 7 6 12 14 17 23 20 14 9 16 22 21 20 24 25 25 27 28 22 18 21 23 21 23 30 30 24 24 20 18 17 16 19 21 21 22 23 24 24
7 6 6 7 10 10 11 17 18 19 31 23 19 19 5 21 23 24 25 26 25 27 21 18 20 22 20 26 30 29 26 23 20 20 16 17 21 21 22 22 22 23 24
4 6 6 6 7 10 12 13 18 20 33 34 32 36 32 12 26 25 23 27 25 25 18 19 21 24 21 31 32 30 24 18 19 18 17 21 21 22 22 22 21 22 22
6 5 5 6 6 8 9 11 10 13 17 20 20 25 20 17 23 20 23 27 26 23 18 18 22 23 23 22 22 22 18 19 18 17 18 22 22 22 21 20 20 20 20
6 4 6 6 6 6 5 7 6 6 8 10 16 19 14 13 19 18 17 18 20 20 15 14 15 15 19 17 16 16 18 17 17 15 20 21 23 22 21 21 19 19 18
7 7 6 6 6 5 5 4 5 5 6 6 12 19 17 11 12 15 13 14 14 19 13 12 11 15 17 17 19 19 17 16 15 15 20 23 21 22 21 20 19 18 18
8 7 7 7 7 6 6 4 3 4 5 10 14 17 15 15 14 15 13 14 14 15 15 12 11 10 13 13 18 18 15 16 15 15 17 24 21 21 20 19 19 18 18
8 8 7 8 8 7 5 4 4 4 7 10 12 16 16 21 13 10 9 9 12 15 15 15 9 6 6 12 13 17 16 16 16 16 17 20 21 20 19 18 18 18 18
10 9 8 8 8 6 6 4 3 3 7 7 11 16 15 23 18 15 10 8 12 15 13 12 6 6 4 8 10 13 15 15 15 15 18 18 20 20 20 18 18 18 17
13 11 7 8 8 7 6 4 2 3 4 3 10 21 20 23 22 15 10 9 16 14 14 8 4 5 4 7 7 7 10 13 15 16 17 19 20 17 20 20 19 18 18
14 14 10 9 9 8 7 5 3 2 3 3 8 12 15 19 20 14 9 10 16 12 7 7 3 4 3 5 8 8 8 5 10 14 14 15 20 19 19 23 23 21 20
14 14 12 7 8 7 5 5 4 3 2 3 6 9 15 16 20 14 10 11 14 10 8 6 4 3 4 5 8 7 7 6 9 10 12 14 15 18 20 21 21 21 24
12 14 13 11 8 7 5 5 3 4 3 3 3 9 10 14 17 15 7 8 12 10 11 10 5 10 5 4 4 4 3 4 8 7 12 12 13 16 18 18 18 17 20
16 15 14 14 11 8 7 4 3 3 3 5 5 6 9 12 15 13 12 8 11 8 8 8 6 4 3 6 5 3 4 2 2 4 5 7 11 17 16 19 19 20 20
16 16 16 16 16 10 8 5 4 3 2 3 4 5 5 8 9 12 13 9 8 9 8 6 5 8 4 3 7 5 3 4 3 3 6 6 9 8 15 18 20 22 22
16 14 15 15 15 11 11 8 10 7 6 5 5 5 5 6 5 8 12 10 6 7 7 5 4 3 5 10 2 2 3 5 3 1 3 6 5 9 10 13 18 20 22
16 15 13 14 14 12 12 10 8 8 5 5 6 9 10 8 5 6 8 10 6 5 5 3 2 3 3 5 4 3 2 0 5 3 4 4 2 5 7 11 16 18 22
13 15 13 13 13 13 12 12 12 11 9 8 8 8 7 9 6 7 7 7 6 7 8 9 9 6 7 6 4 4 4 4 4 3 2 3 4 4 6 7 9 16 20
Wind_Direction
174 161 156 154 146 133 128 126 123 119 117 114 117 114 116 119 124 128 127 127 128 126 124 119 116 118 119 118 115 112 110 108 108 106 105 105 104 102 96 93 93 94 92
149 161 162 161 156 147 140 139 139 136 128 124 124 128 126 126 126 126 129 132 133 129 127 123 123 126 124 118 112 111 107 108 108 108 106 105 103 101 98 93 93 95 95
150 161 166 166 166 160 155 148 145 140 133 131 133 131 136 134 135 134 136 140 137 132 130 130 131 130 125 119 116 111 109 104 101 99 102 102 106 103 100 98 92 93 95
158 165 169 170 174 170 165 156 149 146 140 139 138 139 139 138 139 141 140 140 137 135 137 137 136 132 126 120 116 114 111 105 102 106 104 104 104 104 97 98 99 97 94
163 171 175 172 173 172 169 164 155 151 148 145 144 144 141 141 140 139 137 136 138 137 142 142 138 134 128 123 120 115 106 104 102 93 96 105 107 110 109 107 106 105 104
175 171 175 173 171 173 173 167 166 163 160 155 154 153 147 146 142 139 138 139 140 138 140 140 140 135 129 126 119 117 111 105 99 97 99 104 108 113 113 112 110 109 108
158 169 175 174 176 179 177 176 175 171 169 164 157 151 150 149 147 143 144 144 142 140 139 141 139 129 125 117 113 117 112 108 104 104 103 104 113 120 119 118 118 116 114
127 123 149 182 187 188 184 190 187 180 172 164 156 152 151 148 146 145 147 146 138 133 141 144 135 127 120 108 126 122 118 112 109 107 113 113 124 125 123 122 122 120 118
114 119 149 175 127 112 224 209 205 205 173 154 135 145 156 141 160 150 147 143 141 136 148 144 134 128 120 112 123 121 120 116 114 115 126 121 130 128 126 126 125 124 123
131 133 144 151 129 120 117 124 131 150 131 125 128 131 153 164 183 153 142 143 141 139 149 142 132 125 114 126 126 125 123 118 114 116 126 130 135 131 130 131 128 128 126
139 153 151 139 142 141 137 143 150 157 152 150 150 161 179 208 197 152 150 146 143 139 155 147 139 129 116 130 128 127 125 126 121 124 128 140 138 135 134 133 131 130 130
171 184 155 149 148 155 153 148 160 166 167 166 159 161 167 182 195 158 152 145 139 143 153 152 144 131 121 125 130 123 126 133 130 131 139 146 141 140 137 135 134 133 130
163 165 166 145 148 146 139 146 172 177 151 171 169 166 159 155 179 146 149 143 143 143 149 152 144 133 126 120 137 129 133 138 138 136 148 151 146 143 142 141 138 136 134
158 170 163 151 154 156 141 154 168 170 156 162 173 182 171 164 156 149 153 153 158 154 150 153 155 142 131 129 140 137 138 142 140 142 153 151 151 148 147 146 144 142 138
153 162 165 150 151 152 152 152 163 170 169 180 184 184 198 170 152 155 153 158 161 153 161 154 156 149 139 134 142 138 138 143 144 149 154 155 156 154 153 153 151 151 147
152 161 165 152 149 151 143 159 172 182 180 180 191 198 218 155 148 155 157 159 159 152 162 164 161 151 154 115 142 143 145 147 155 152 155 158 161 158 158 159 160 159 159
166 151 160 147 141 143 137 151 146 174 188 187 202 187 188 151 148 156 153 157 161 154 147 137 142 141 141 117 149 145 147 154 160 159 154 160 167 166 163 169 171 170 168
152 147 146 141 134 138 145 152 158 174 165 170 155 157 153 148 151 154 152 158 160 151 162 157 157 145 173 128 143 152 147 162 164 166 159 165 171 170 172 177 182 181 180
151 146 142 145 140 135 137 140 151 154 149 144 115 122 136 152 153 154 153 158 156 151 165 164 150 139 161 134 150 150 145 155 169 171 171 173 180 178 178 190 189 191 193
152 146 143 147 138 134 137 133 141 118 104 101 139 150 158 160 162 155 157 154 158 162 168 164 157 156 170 161 142 144 155 163 171 178 181 182 191 187 191 193 198 202 203
155 149 150 150 155 149 155 156 149 162 153 131 151 153 151 165 165 164 164 160 168 165 174 177 161 173 179 160 113 95 71 167 175 184 186 186 194 198 198 201 202 208 216
161 158 157 158 164 164 168 159 129 139 171 184 167 168 161 156 164 168 170 172 173 167 170 173 157 150 147 179 165 122 135 126 213 207 198 193 199 201 203 208 209 212 212
166 165 163 163 163 165 160 139 127 114 109 160 178 181 167 142 148 171 180 181 169 168 169 163 170 173 143 199 181 152 129 198 134 156 219 208 198 200 207 211 213 217 218
171 165 162 160 160 162 157 167 165 173 178 197 181 179 165 164 150 162 170 175 160 171 157 157 168 197 141 180 87 181 130 149 147 202 232 217 209 205 206 208 212 216 220
164 167 165 164 160 161 168 171 166 176 176 154 174 172 189 179 175 168 177 166 157 164 142 151 173 198 180 147 152 162 114 61 95 146 218 245 201 214 213 210 208 210 215
160 167 166 166 168 163 171 173 176 173 171 164 168 176 180 182 181 187 164 181 178 161 174 181 214 204 231 163 165 155 164 167 167 162 173 225 215 228 208 210 200 215 221